Regional Weather Roundup
Issued by NWS

Home | Current Version | Previous Version | Graphics & Text | Print | Product List | Glossary On
Versions: 1 2 3 4 5 6 7 8 9 10 11 12 13 14 15 16 17 18 19 20 21 22 23 24 25 26 27 28 29 30 31 32 33 34 35 36 37 38 39 40 41 42 43 44 45 46 47 48 49 50
436
ASUS43 KFSD 020810
RWRSD

WEATHER ROUNDUP FOR SOUTH DAKOTA
NATIONAL WEATHER SERVICE SIOUX FALLS SD
200 AM CST FRI DEC 02 2016

NOTE: "FAIR" INDICATES FEW OR NO CLOUDS BELOW 12,000 FEET WITH NO
SIGNIFICANT WEATHER AND/OR OBSTRUCTIONS TO VISIBILITY.


SDZ001>005-009-010-012>017-020900-
NORTHWEST AND NORTH CENTRAL SOUTH DAKOTA

CITY           SKY/WX    TMP DP  RH WIND       PRES   REMARKS
BUFFALO          N/A     23  21  92 E5        29.99R WCI  17
FAITH            N/A     26  26 100 CALM      30.09R
MOBRIDGE       CLOUDY    29  23  78 CALM      30.11R
$$

SDZ012>016-024>037-041>051-057-063-072>074-020900-
SOUTHWEST AND SOUTH CENTRAL SOUTH DAKOTA

CITY           SKY/WX    TMP DP  RH WIND       PRES   REMARKS
RAPID CTY ARPT CLOUDY    23  18  81 CALM      30.06S
PIERRE         CLOUDY    30  25  81 W6        30.12R WCI  24
CUSTER         CLOUDY    23  17  78 CALM      29.99R
ELLSWORTH AFB  CLOUDY    24  20  82 CALM      30.05S
PHILIP         CLOUDY    25  23  92 CALM      30.12R
PINE RIDGE     CLEAR     19  18  95 CALM      30.08R
SPEARFISH      FAIR      28  23  80 W10       30.04S WCI  19
WINNER         CLOUDY    28  25  88 W5        30.12R WCI  23
$$

SDZ004>011-016>023-039-040-020900-
NORTHEAST SOUTH DAKOTA

CITY           SKY/WX    TMP DP  RH WIND       PRES   REMARKS
ABERDEEN       CLOUDY    29  24  82 NW8       30.14R WCI  21
WATERTOWN      CLOUDY    25  23  92 N7        30.10R WCI  17
SISSETON         N/A     28  26  92 NW7       30.12R WCI  21
$$

SDZ017-020-022-023-036>040-048>070-020900-
SOUTHEAST SOUTH DAKOTA

CITY           SKY/WX    TMP DP  RH WIND       PRES   REMARKS
SIOUX FALLS    CLOUDY    33  33 100 NW7       30.11R FOG     WCI  27
HURON          CLOUDY    30  28  92 N5        30.14R WCI  25
CHAMBERLAIN    MIX PCPN  31  31 100 W5        30.12R WCI  26
MITCHELL       LGT SNOW  32  31  96 W5        30.14R FOG     WCI  27
YANKTON        CLOUDY    32  28  86 W6        30.13R WCI  26
$$

ABBREVIATIONS USED IN REMARKS
   TC - TEMPERATURE IN CELSIUS
  WCI - WIND CHILL INDEX
   HX - HEAT INDEX
  VSB - VISIBILITY





USA.gov is the U.S. government's official web portal to all federal, state and local government web resources and services.